QPF
0.01 0.01 0.01 0.01 0.01 0.01 0.02 0.02 0.03 0.02 0.01 0.01 0.01 0.01 0.01 0.01 0.01 0.01 0.01 0.02 0.02 0.02 0.02 0.02 0.03 0.03 0.02 0.02 0.02 0.03 0.03 0.02 0.02 0.01 0.02 0.03 0.05 0.05
0.01 0.01 0.01 0.01 0.01 0.01 0.02 0.02 0.02 0.02 0.02 0.01 0.01 0.01 0.01 0.01 0.01 0.01 0.01 0.02 0.02 0.02 0.02 0.02 0.03 0.03 0.03 0.03 0.03 0.03 0.04 0.03 0.02 0.01 0.01 0.02 0.02 0.04
0.02 0.02 0.01 0.01 0.01 0.01 0.01 0.01 0.01 0.01 0.01 0.01 0.01 0.00 0.01 0.01 0.01 0.01 0.01 0.01 0.01 0.02 0.02 0.02 0.03 0.03 0.03 0.03 0.03 0.03 0.04 0.03 0.01 0.01 0.01 0.01 0.01 0.02
0.03 0.02 0.01 0.01 0.01 0.01 0.01 0.01 0.01 0.01 0.01 0.01 0.00 0.00 0.00 0.00 0.00 0.00 0.01 0.01 0.01 0.02 0.02 0.02 0.03 0.03 0.03 0.03 0.03 0.03 0.03 0.02 0.01 0.01 0.01 0.01 0.01 0.01
0.03 0.02 0.02 0.01 0.01 0.01 0.02 0.02 0.01 0.01 0.01 0.01 0.01 0.00 0.00 0.00 0.00 0.00 0.01 0.01 0.01 0.02 0.02 0.03 0.03 0.03 0.04 0.04 0.03 0.02 0.02 0.02 0.01 0.01 0.01 0.01 0.01 0.01
0.03 0.02 0.02 0.01 0.01 0.01 0.01 0.02 0.02 0.02 0.02 0.02 0.01 0.01 0.00 0.00 0.00 0.00 0.00 0.00 0.01 0.01 0.01 0.01 0.01 0.01 0.02 0.03 0.02 0.01 0.01 0.01 0.01 0.01 0.01 0.01 0.01 0.01
0.03 0.02 0.02 0.02 0.01 0.01 0.01 0.01 0.02 0.03 0.03 0.03 0.02 0.01 0.01 0.00 0.00 0.00 0.00 0.00 0.00 0.00 0.00 0.01 0.01 0.01 0.01 0.02 0.03 0.02 0.01 0.01 0.01 0.01 0.01 0.01 0.01 0.01
0.03 0.02 0.01 0.01 0.01 0.01 0.02 0.01 0.02 0.02 0.03 0.03 0.02 0.02 0.01 0.00 0.00 0.00 0.00 0.00 0.00 0.00 0.00 0.01 0.01 0.01 0.01 0.01 0.03 0.03 0.01 0.01 0.01 0.01 0.01 0.02 0.01 0.01
0.02 0.02 0.01 0.01 0.01 0.01 0.01 0.01 0.01 0.01 0.01 0.02 0.02 0.01 0.01 0.00 0.01 0.01 0.00 0.00 0.00 0.00 0.01 0.01 0.01 0.01 0.01 0.01 0.02 0.03 0.02 0.01 0.01 0.01 0.01 0.02 0.01 0.01
0.01 0.01 0.01 0.01 0.00 0.01 0.01 0.01 0.01 0.00 0.00 0.01 0.01 0.01 0.01 0.01 0.01 0.01 0.01 0.01 0.00 0.00 0.01 0.01 0.01 0.01 0.01 0.01 0.02 0.02 0.02 0.02 0.01 0.01 0.01 0.01 0.01 0.01
0.01 0.01 0.01 0.01 0.01 0.01 0.01 0.01 0.01 0.01 0.01 0.01 0.01 0.01 0.01 0.01 0.01 0.01 0.01 0.02 0.01 0.00 0.00 0.01 0.01 0.01 0.01 0.01 0.01 0.02 0.02 0.02 0.01 0.01 0.01 0.01 0.01 0.01
0.01 0.01 0.01 0.01 0.01 0.01 0.01 0.01 0.02 0.01 0.00 0.01 0.01 0.01 0.01 0.00 0.00 0.01 0.01 0.02 0.02 0.01 0.00 0.01 0.01 0.01 0.02 0.02 0.02 0.02 0.02 0.02 0.02 0.02 0.01 0.01 0.01 0.01
0.01 0.01 0.01 0.01 0.01 0.01 0.01 0.01 0.01 0.01 0.01 0.01 0.01 0.01 0.01 0.00 0.00 0.00 0.01 0.02 0.02 0.02 0.01 0.01 0.02 0.02 0.02 0.02 0.02 0.02 0.02 0.02 0.02 0.02 0.01 0.01 0.01 0.01
0.01 0.01 0.01 0.01 0.01 0.01 0.01 0.01 0.01 0.01 0.01 0.01 0.01 0.01 0.01 0.00 0.00 0.01 0.01 0.01 0.01 0.01 0.01 0.01 0.02 0.02 0.03 0.02 0.02 0.02 0.01 0.01 0.01 0.02 0.01 0.01 0.01 0.01
0.01 0.01 0.01 0.01 0.01 0.01 0.01 0.01 0.01 0.01 0.01 0.01 0.01 0.00 0.00 0.00 0.01 0.01 0.01 0.01 0.01 0.01 0.01 0.01 0.02 0.02 0.03 0.03 0.02 0.01 0.01 0.01 0.01 0.02 0.02 0.02 0.02 0.02
0.01 0.01 0.01 0.01 0.01 0.01 0.01 0.01 0.00 0.01 0.01 0.01 0.00 0.00 0.00 0.01 0.01 0.01 0.01 0.01 0.01 0.01 0.01 0.01 0.02 0.03 0.04 0.03 0.03 0.03 0.02 0.02 0.02 0.02 0.02 0.03 0.03 0.03
0.01 0.01 0.01 0.00 0.00 0.00 0.00 0.00 0.00 0.00 0.00 0.01 0.01 0.01 0.01 0.01 0.01 0.01 0.01 0.02 0.02 0.01 0.01 0.01 0.02 0.03 0.03 0.04 0.04 0.04 0.03 0.03 0.02 0.02 0.02 0.03 0.02 0.02
0.01 0.01 0.01 0.01 0.01 0.01 0.00 0.00 0.00 0.00 0.01 0.01 0.01 0.01 0.01 0.01 0.01 0.01 0.01 0.02 0.02 0.02 0.01 0.01 0.01 0.02 0.03 0.03 0.03 0.03 0.03 0.03 0.03 0.03 0.03 0.03 0.03 0.03
0.01 0.01 0.01 0.01 0.01 0.01 0.01 0.01 0.01 0.01 0.01 0.01 0.01 0.01 0.01 0.01 0.01 0.01 0.01 0.02 0.02 0.01 0.02 0.02 0.03 0.03 0.03 0.02 0.02 0.02 0.03 0.03 0.03 0.03 0.04 0.04 0.04 0.04
0.01 0.01 0.01 0.00 0.01 0.01 0.01 0.01 0.00 0.00 0.01 0.01 0.01 0.01 0.01 0.01 0.01 0.01 0.01 0.02 0.02 0.02 0.02 0.02 0.03 0.04 0.05 0.04 0.04 0.03 0.03 0.05 0.05 0.06 0.05 0.04 0.03 0.03
0.00 0.00 0.00 0.00 0.00 0.01 0.01 0.00 0.01 0.01 0.01 0.01 0.01 0.01 0.01 0.01 0.01 0.01 0.01 0.02 0.02 0.02 0.02 0.02 0.02 0.03 0.04 0.04 0.04 0.04 0.04 0.05 0.07 0.07 0.05 0.03 0.03 0.03
0.00 0.00 0.00 0.00 0.01 0.01 0.01 0.01 0.00 0.00 0.00 0.00 0.01 0.01 0.01 0.01 0.01 0.01 0.02 0.02 0.02 0.03 0.03 0.02 0.02 0.02 0.03 0.04 0.04 0.03 0.03 0.04 0.05 0.06 0.06 0.05 0.05 0.05
0.01 0.01 0.01 0.01 0.01 0.01 0.01 0.01 0.01 0.00 0.00 0.00 0.01 0.01 0.01 0.01 0.01 0.01 0.02 0.02 0.02 0.02 0.03 0.03 0.03 0.03 0.02 0.03 0.03 0.03 0.03 0.04 0.04 0.05 0.06 0.06 0.05 0.04
MSLP
1024.98 1024.97 1024.96 1024.94 1024.91 1024.86 1024.79 1024.72 1024.66 1024.62 1024.62 1024.65 1024.72 1024.83 1024.94 1025.06 1025.17 1025.26 1025.33 1025.38 1025.43 1025.49 1025.55 1025.62 1025.70 1025.76 1025.81 1025.83 1025.82 1025.79 1025.75 1025.70 1025.66 1025.64 1025.64 1025.66 1025.69 1025.70
1025.07 1025.07 1025.05 1025.02 1024.97 1024.90 1024.81 1024.71 1024.63 1024.58 1024.57 1024.60 1024.68 1024.80 1024.94 1025.08 1025.21 1025.33 1025.43 1025.51 1025.59 1025.67 1025.75 1025.84 1025.93 1026.01 1026.07 1026.11 1026.12 1026.11 1026.09 1026.08 1026.07 1026.09 1026.12 1026.17 1026.22 1026.25
1025.10 1025.10 1025.09 1025.06 1025.00 1024.92 1024.83 1024.73 1024.66 1024.61 1024.60 1024.65 1024.74 1024.86 1025.01 1025.16 1025.30 1025.42 1025.52 1025.61 1025.69 1025.78 1025.87 1025.97 1026.07 1026.16 1026.24 1026.30 1026.33 1026.35 1026.37 1026.39 1026.42 1026.46 1026.53 1026.61 1026.68 1026.73
1025.08 1025.08 1025.07 1025.05 1025.00 1024.93 1024.85 1024.77 1024.71 1024.68 1024.69 1024.75 1024.86 1024.99 1025.14 1025.29 1025.42 1025.53 1025.62 1025.70 1025.77 1025.84 1025.92 1026.02 1026.12 1026.22 1026.31 1026.38 1026.44 1026.49 1026.54 1026.58 1026.64 1026.72 1026.81 1026.91 1027.01 1027.07
1025.00 1025.00 1024.99 1024.98 1024.95 1024.90 1024.84 1024.78 1024.75 1024.75 1024.79 1024.87 1024.99 1025.14 1025.29 1025.43 1025.55 1025.64 1025.71 1025.76 1025.81 1025.87 1025.93 1026.02 1026.11 1026.21 1026.30 1026.39 1026.46 1026.52 1026.58 1026.65 1026.73 1026.83 1026.93 1027.05 1027.16 1027.24
1024.87 1024.86 1024.85 1024.84 1024.82 1024.78 1024.74 1024.71 1024.71 1024.74 1024.81 1024.92 1025.06 1025.22 1025.37 1025.51 1025.62 1025.70 1025.75 1025.79 1025.82 1025.86 1025.91 1025.98 1026.06 1026.15 1026.24 1026.32 1026.39 1026.46 1026.52 1026.59 1026.68 1026.78 1026.90 1027.03 1027.15 1027.25
1024.69 1024.66 1024.63 1024.62 1024.59 1024.56 1024.53 1024.52 1024.54 1024.59 1024.68 1024.81 1024.97 1025.15 1025.31 1025.46 1025.57 1025.65 1025.71 1025.74 1025.77 1025.80 1025.84 1025.90 1025.98 1026.05 1026.13 1026.20 1026.26 1026.32 1026.38 1026.44 1026.52 1026.62 1026.74 1026.87 1027.01 1027.13
1024.45 1024.39 1024.34 1024.29 1024.25 1024.21 1024.18 1024.17 1024.19 1024.26 1024.36 1024.51 1024.68 1024.87 1025.05 1025.21 1025.35 1025.45 1025.52 1025.58 1025.62 1025.67 1025.72 1025.78 1025.85 1025.92 1025.99 1026.05 1026.10 1026.14 1026.18 1026.23 1026.31 1026.40 1026.52 1026.66 1026.80 1026.95
1024.16 1024.05 1023.96 1023.88 1023.81 1023.74 1023.69 1023.67 1023.68 1023.74 1023.84 1023.99 1024.18 1024.38 1024.58 1024.76 1024.93 1025.06 1025.17 1025.27 1025.35 1025.43 1025.50 1025.59 1025.67 1025.74 1025.80 1025.85 1025.89 1025.92 1025.95 1026.00 1026.06 1026.15 1026.28 1026.43 1026.59 1026.76
1023.80 1023.64 1023.50 1023.38 1023.27 1023.17 1023.09 1023.04 1023.03 1023.07 1023.17 1023.31 1023.49 1023.69 1023.91 1024.12 1024.32 1024.50 1024.66 1024.80 1024.94 1025.06 1025.18 1025.29 1025.40 1025.49 1025.56 1025.61 1025.65 1025.68 1025.71 1025.75 1025.82 1025.92 1026.06 1026.23 1026.42 1026.62
1023.37 1023.16 1022.98 1022.81 1022.66 1022.53 1022.42 1022.34 1022.31 1022.33 1022.40 1022.53 1022.70 1022.91 1023.13 1023.36 1023.59 1023.81 1024.01 1024.21 1024.39 1024.57 1024.73 1024.89 1025.03 1025.14 1025.23 1025.30 1025.35 1025.39 1025.44 1025.50 1025.58 1025.70 1025.86 1026.06 1026.27 1026.51
1022.86 1022.62 1022.40 1022.21 1022.03 1021.87 1021.74 1021.64 1021.59 1021.59 1021.64 1021.75 1021.90 1022.10 1022.32 1022.55 1022.80 1023.04 1023.28 1023.52 1023.74 1023.96 1024.17 1024.37 1024.54 1024.69 1024.81 1024.90 1024.98 1025.05 1025.12 1025.20 1025.32 1025.47 1025.66 1025.88 1026.13 1026.40
1022.29 1022.02 1021.79 1021.58 1021.39 1021.23 1021.09 1020.99 1020.92 1020.91 1020.95 1021.03 1021.17 1021.34 1021.55 1021.77 1022.02 1022.27 1022.52 1022.77 1023.03 1023.27 1023.51 1023.74 1023.94 1024.12 1024.27 1024.40 1024.51 1024.61 1024.72 1024.84 1024.99 1025.18 1025.40 1025.66 1025.93 1026.22
1021.65 1021.37 1021.14 1020.93 1020.75 1020.60 1020.48 1020.39 1020.33 1020.32 1020.35 1020.42 1020.53 1020.68 1020.86 1021.07 1021.29 1021.52 1021.76 1022.02 1022.27 1022.53 1022.78 1023.02 1023.24 1023.45 1023.63 1023.78 1023.93 1024.07 1024.21 1024.37 1024.56 1024.78 1025.03 1025.31 1025.60 1025.89
1020.95 1020.69 1020.47 1020.28 1020.13 1020.01 1019.91 1019.85 1019.81 1019.81 1019.84 1019.90 1020.00 1020.12 1020.27 1020.44 1020.62 1020.82 1021.04 1021.27 1021.51 1021.75 1022.00 1022.24 1022.47 1022.68 1022.88 1023.06 1023.23 1023.40 1023.58 1023.77 1023.99 1024.23 1024.50 1024.78 1025.08 1025.37
1020.23 1019.99 1019.79 1019.63 1019.51 1019.43 1019.37 1019.33 1019.32 1019.34 1019.38 1019.43 1019.51 1019.61 1019.73 1019.86 1020.00 1020.16 1020.34 1020.53 1020.74 1020.96 1021.19 1021.41 1021.64 1021.85 1022.06 1022.25 1022.44 1022.62 1022.82 1023.03 1023.26 1023.51 1023.77 1024.06 1024.34 1024.62
1019.52 1019.30 1019.13 1019.00 1018.91 1018.85 1018.82 1018.81 1018.83 1018.86 1018.90 1018.96 1019.03 1019.11 1019.19 1019.28 1019.39 1019.51 1019.64 1019.79 1019.96 1020.15 1020.35 1020.55 1020.76 1020.97 1021.17 1021.36 1021.55 1021.75 1021.94 1022.15 1022.38 1022.62 1022.87 1023.14 1023.40 1023.66
1018.87 1018.66 1018.51 1018.39 1018.32 1018.27 1018.26 1018.27 1018.29 1018.33 1018.38 1018.43 1018.48 1018.54 1018.60 1018.66 1018.73 1018.81 1018.91 1019.02 1019.16 1019.31 1019.49 1019.67 1019.86 1020.05 1020.24 1020.42 1020.60 1020.79 1020.97 1021.17 1021.38 1021.60 1021.83 1022.06 1022.29 1022.52
1018.31 1018.11 1017.96 1017.84 1017.76 1017.72 1017.70 1017.70 1017.72 1017.75 1017.78 1017.82 1017.86 1017.90 1017.93 1017.96 1018.00 1018.06 1018.12 1018.20 1018.31 1018.44 1018.58 1018.75 1018.91 1019.09 1019.26 1019.43 1019.60 1019.77 1019.94 1020.11 1020.29 1020.48 1020.68 1020.89 1021.09 1021.29
1017.87 1017.67 1017.51 1017.38 1017.28 1017.20 1017.15 1017.13 1017.12 1017.13 1017.14 1017.15 1017.17 1017.18 1017.18 1017.19 1017.20 1017.23 1017.27 1017.32 1017.40 1017.51 1017.63 1017.77 1017.92 1018.08 1018.24 1018.40 1018.55 1018.70 1018.85 1019.00 1019.16 1019.33 1019.50 1019.67 1019.85 1020.03
1017.53 1017.34 1017.16 1017.00 1016.87 1016.75 1016.67 1016.60 1016.55 1016.51 1016.49 1016.46 1016.44 1016.42 1016.40 1016.37 1016.35 1016.35 1016.35 1016.38 1016.44 1016.51 1016.62 1016.74 1016.87 1017.01 1017.16 1017.31 1017.45 1017.59 1017.72 1017.86 1018.00 1018.15 1018.30 1018.46 1018.63 1018.79
1017.29 1017.09 1016.90 1016.71 1016.54 1016.39 1016.25 1016.14 1016.04 1015.95 1015.88 1015.81 1015.75 1015.68 1015.62 1015.55 1015.49 1015.44 1015.41 1015.39 1015.41 1015.46 1015.53 1015.63 1015.74 1015.87 1016.00 1016.14 1016.28 1016.42 1016.55 1016.69 1016.83 1016.98 1017.13 1017.28 1017.45 1017.62
1017.07 1016.88 1016.68 1016.48 1016.28 1016.09 1015.92 1015.76 1015.61 1015.48 1015.36 1015.25 1015.13 1015.01 1014.89 1014.76 1014.65 1014.54 1014.45 1014.39 1014.35 1014.35 1014.38 1014.44 1014.53 1014.64 1014.76 1014.90 1015.04 1015.19 1015.34 1015.49 1015.64 1015.80 1015.97 1016.14 1016.32 1016.50
Thickness
5499 5498 5495 5493 5491 5489 5487 5485 5483 5483 5484 5484 5482 5482 5480 5478 5478 5478 5478 5478 5479 5479 5480 5480 5480 5480 5480 5480 5480 5479 5479 5479 5479 5479 5479 5480 5481 5482
5488 5487 5485 5483 5481 5479 5477 5475 5473 5471 5472 5473 5470 5469 5468 5467 5466 5466 5466 5466 5467 5467 5468 5468 5468 5469 5469 5469 5468 5468 5467 5466 5466 5466 5466 5468 5469 5469
5478 5476 5475 5473 5471 5469 5467 5465 5463 5461 5461 5461 5459 5458 5456 5456 5456 5455 5455 5455 5455 5455 5455 5456 5456 5456 5456 5456 5456 5456 5455 5454 5454 5454 5454 5455 5456 5457
5468 5466 5464 5463 5461 5459 5458 5456 5454 5451 5450 5450 5449 5447 5445 5445 5444 5443 5443 5442 5442 5442 5442 5443 5443 5443 5443 5444 5444 5444 5443 5442 5442 5442 5442 5443 5444 5445
5457 5456 5455 5453 5451 5450 5448 5446 5444 5443 5440 5438 5438 5436 5434 5433 5433 5432 5431 5430 5430 5430 5430 5430 5430 5431 5431 5431 5432 5432 5432 5431 5430 5430 5430 5431 5432 5433
5447 5446 5445 5444 5442 5441 5439 5437 5434 5432 5430 5428 5428 5426 5423 5422 5420 5420 5420 5419 5419 5419 5418 5418 5418 5418 5419 5420 5420 5420 5420 5420 5419 5419 5419 5420 5420 5422
5437 5436 5436 5435 5434 5433 5431 5428 5425 5423 5421 5419 5418 5416 5413 5410 5408 5407 5406 5407 5407 5407 5406 5407 5407 5407 5408 5408 5409 5409 5409 5409 5409 5409 5409 5410 5411 5412
5427 5426 5426 5425 5424 5423 5422 5420 5418 5415 5412 5409 5408 5405 5403 5400 5398 5396 5393 5393 5395 5396 5394 5396 5395 5396 5397 5398 5399 5399 5399 5399 5399 5400 5400 5400 5400 5401
5415 5415 5415 5414 5412 5411 5410 5409 5407 5405 5404 5401 5398 5396 5394 5391 5388 5386 5383 5381 5382 5383 5381 5385 5384 5384 5386 5387 5388 5389 5390 5389 5389 5390 5390 5390 5391 5391
5405 5404 5403 5402 5401 5400 5399 5397 5396 5394 5393 5392 5390 5388 5385 5382 5379 5376 5373 5372 5373 5372 5370 5370 5374 5374 5377 5378 5379 5380 5380 5380 5380 5380 5381 5381 5381 5382
5394 5393 5392 5391 5391 5390 5389 5387 5385 5384 5383 5381 5380 5378 5375 5372 5369 5366 5363 5361 5362 5363 5360 5359 5363 5364 5367 5370 5371 5371 5370 5371 5371 5371 5372 5372 5373 5373
5383 5382 5382 5381 5381 5380 5377 5376 5375 5374 5372 5370 5368 5367 5365 5362 5359 5356 5353 5351 5351 5352 5352 5349 5351 5350 5356 5361 5362 5361 5361 5361 5362 5363 5363 5364 5364 5365
5372 5371 5371 5370 5370 5369 5367 5366 5365 5363 5361 5358 5357 5356 5355 5353 5350 5348 5345 5343 5342 5342 5342 5340 5340 5340 5341 5347 5353 5353 5353 5353 5354 5354 5355 5356 5356 5356
5361 5360 5360 5360 5359 5358 5357 5356 5354 5353 5350 5348 5346 5346 5345 5344 5342 5340 5338 5337 5335 5335 5335 5332 5332 5332 5332 5336 5341 5345 5345 5345 5346 5347 5347 5347 5348 5349
5351 5350 5350 5349 5348 5347 5346 5345 5343 5341 5339 5337 5336 5336 5335 5334 5333 5332 5332 5331 5330 5330 5329 5327 5326 5326 5326 5327 5331 5334 5335 5338 5339 5339 5340 5341 5341 5342
5339 5339 5338 5338 5337 5336 5335 5334 5332 5330 5329 5328 5327 5326 5326 5326 5326 5324 5323 5323 5323 5324 5324 5322 5321 5321 5321 5322 5323 5325 5326 5328 5331 5332 5333 5335 5336 5336
5329 5327 5326 5325 5325 5324 5324 5323 5322 5321 5319 5319 5318 5317 5318 5318 5318 5317 5316 5315 5315 5316 5317 5318 5316 5316 5317 5317 5318 5320 5321 5322 5323 5324 5325 5329 5331 5332
5320 5318 5316 5315 5315 5315 5314 5313 5312 5312 5311 5310 5309 5309 5309 5310 5310 5310 5309 5308 5308 5309 5309 5310 5310 5311 5312 5314 5315 5315 5315 5316 5318 5318 5319 5321 5326 5328
5310 5309 5308 5308 5307 5306 5305 5305 5304 5303 5302 5302 5302 5301 5301 5302 5302 5302 5302 5301 5302 5303 5303 5303 5302 5302 5303 5306 5310 5311 5309 5311 5312 5314 5315 5316 5320 5323
5301 5300 5300 5300 5299 5298 5297 5297 5296 5296 5295 5295 5294 5294 5293 5294 5294 5294 5294 5295 5296 5297 5298 5298 5297 5296 5296 5298 5301 5305 5306 5306 5307 5309 5311 5313 5315 5318
5293 5292 5292 5292 5291 5291 5290 5289 5289 5289 5288 5288 5288 5287 5287 5287 5287 5288 5289 5290 5291 5291 5292 5293 5293 5293 5292 5293 5294 5299 5302 5303 5304 5305 5307 5309 5310 5313
5286 5286 5286 5285 5285 5284 5284 5283 5283 5283 5283 5283 5283 5282 5282 5282 5282 5283 5284 5285 5286 5286 5287 5288 5288 5288 5288 5289 5290 5293 5296 5299 5301 5303 5304 5305 5305 5307
5279 5279 5279 5279 5279 5279 5278 5278 5278 5279 5278 5278 5278 5278 5278 5278 5278 5279 5280 5280 5281 5282 5282 5283 5283 5283 5284 5284 5285 5287 5290 5292 5295 5298 5301 5302 5303 5304